Location: Appeville
(49.3218°N, 1.3427°W)
Time: 16:47:24
(UTC+00:00)

Helios 1A Rocket - Pass Details

Date: 08 December 2019
Orbit: 564 x 587 km, 98.3° (Epoch: 22 January)

Event Time Altitude Azimuth Distance (km) Brightness Sun altitude
Rises 06:36:52 0° 7° (N) 2,784 6.3 -10.9°
Reaches altitude 10° 06:39:09 10° 358° (N) 1,878 5.3 -10.5°
Maximum altitude 06:42:50 35° 293° (WNW) 935 3.5 -10.0°
Drops below altitude 10° 06:46:29 10° 228° (SW) 1,858 5.3 -9.4°
Sets 06:48:44 0° 219° (SW) 2,749 6.2 -9.1°
